Showing default

LEMUR 2 CAEL, 58903

Orbit data source: Space-Track

LEMUR 2 CAEL, 58903 is an American payload satellite in SSO that was launched on Wed, 31 Jan 2024 UTC via an ELECTRON launch vehicle from the Rocket Lab Launch Complex (RLLC). Payload-class satellites include a variety of spacecraft equipped with specific instruments for various scientific and technological missions. These include communications satellites like Starlink; space stations such as the ISS; scientific satellites like the Hubble; Earth observation satellites from companies like Planet Labs, Umbra, and HawkEye 360; GPS; miniature CubeSats for education and research; and military/defense satellites.

Loading next visibility...
Identifier
58903, 2024-022E
Orbit
SSO
Country
Flag of USUS
Related business
Manufacturer
Spire/Glasgow
Mission
Operational Commercial Early Warn
Bus & Motor
CUBESAT 3U, Unknown motor
Mass
~25 kg wet, ~25 kg dry
Launch date (UTC)
2024-01-31 (2 years ago)
Launch vehicle
ELECTRON
Launch site
Rocket Lab Launch Complex (RLLC)
Object type
Payload
Rocket body
Debris
Shape & HBR
Box + 2 Pan, 0.5 m
Radar Cross Section
0.146 m², Medium (>0.1 m² and < 1m²)

Expand to show TLE details & history
Last TLE update: 2 days ago

TLE from 2 days ago
0 LEMUR 2 CAEL
1 58903U 24022E   26190.54758611  .00013295  00000-0  31637-3 0  9993
2 58903  97.4076  41.7924 0007757  28.9089 331.2586 15.41725396135784
Epoch: 2026-07-09T13:08Z
TLE epoch observation values (Epoch: 2026-07-09T13:08:31.439Z)
Latitude
-0.00006°
Longitude
-82.82653°
Altitude
439.499 km
Speed
7.651 km/s
True Right ascension
02h 47m 10s
True Declination
0° 00' 00"
Sunlit
Object was in daylight at epoch
Visualization orbit readout
Latitude
Unknown
Longitude
Unknown
Altitude
Unknown
Speed
Unknown
Apparent Right ascension
Unknown
Apparent Declination
Unknown
Sunlit
N/A
Visualization observer readout
Local Sidereal Time
02:44:48
Azimuth
Unknown
Elevation
Unknown
Doppler factor
Unknown
Orbital elements
Apogee altitude
443.241 km
Perigee altitude
432.667 km
Semi-major axis
6,816.091 km
Eccentricity
0.00078
Inclination
97.4076°
RAAN
41.7924°
Arg. of periapsis
28.9089°
True anomaly
331.21582°
Mean anomaly
331.2586°
Eccentric anomaly
331.23721°
Mean motion
3.85692 °/min
Orbital period
93.34 mins
BSTAR
0.00031637
Loading maneuver chart data...
Computing Atmospheric mass density...
Loading historical data...
Loading historical data...
Loading historical data...
Loading historical data...
Loading historical data...
Loading historical data...
Loading historical data...

Documentation

Showing up to 5 results
|